Location: Albany
(35.0170°S, 117.8920°E)
Time: 00:40:53
(UTC+08:00)

S-56A Canister/Altair - Pass Details

Date: 24 June 2021
Orbit: 632 x 2501 km, 38.9° (Epoch: 24 July)

Event Time Altitude Azimuth Distance (km) Brightness Sun altitude
Rises 17:05:38 0° 268° (W) 5,890 13.2 -1.0°
Reaches altitude 10° 17:09:19 10° 266° (W) 5,016 12.8 -1.6°
Maximum altitude 17:24:30 76° 180° (S) 2,541 10.1 -4.4°
Drops below altitude 10° 17:38:25 10° 94° (E) 4,653 10.9 -7.0°
Enters shadow 17:40:12 - 92° (E) 5,086 11.1 -7.3°
